Regional Weather Roundup
Issued by NWS

Home | Current Version | Previous Version | Graphics & Text | Print | Product List | Glossary On
Versions: 1 2 3 4 5 6 7 8 9 10 11 12 13 14 15 16 17 18 19 20 21 22 23 24 25 26 27
000
ASUS45 KBOI 281010
RWRID

IDAHO REGIONAL WEATHER ROUNDUP
NATIONAL WEATHER SERVICE BOISE ID
400 AM MDT SUN AUG 28 2016

NOTE: "FAIR" INDICATES FEW OR NO CLOUDS BELOW 12000 FEET
WITH NO SIGNIFICANT WEATHER AND/OR OBSTRUCTIONS TO VISIBILITY

IDZ012-014-281100-
SOUTHWEST IDAHO


CITY           SKY/WX    TMP DP  RH WIND       PRES   REMARKS
BOISE          FAIR      64  34  32 W6        29.97R
CALDWELL       FAIR      65  44  46 W6        29.96R
MOUNTAIN HOME  FAIR      61  31  32 NW5       29.96R
$$

IDZ016-017-281100-
SOUTHCENTRAL IDAHO


CITY           SKY/WX    TMP DP  RH WIND       PRES   REMARKS
BURLEY         FAIR      52  42  69 SE3       30.02R
JEROME         FAIR      61  35  37 SE6       30.02R
TWIN FALLS     FAIR      61  32  33 S10       30.02R
$$

IDZ019>023-281100-
SOUTHEAST IDAHO


CITY           SKY/WX    TMP DP  RH WIND       PRES   REMARKS
IDAHO FALLS    CLEAR     58  33  39 SW6       30.07R
POCATELLO      CLEAR     57  30  35 N7        30.05R
REXBURG        CLEAR     48  34  58 E3        30.08R
$$

IDZ006-010-011-018-031-032-281100-
CENTRAL IDAHO MOUNTAINS


CITY           SKY/WX    TMP DP  RH WIND       PRES   REMARKS
MCCALL         FAIR      50  39  66 E3        30.08R
HAILEY         FAIR      50  32  50 NW9       30.13R
STANLEY          N/A     37  24  59 VRB5      30.19R WCI  33
SALMON         CLEAR    N/A N/A N/A MISG        N/A
CHALLIS        CLOUDY    55  26  32 CALM      30.07R
$$

IDZ002-004-006-007-026-281100-
NORTHERN IDAHO


CITY           SKY/WX    TMP DP  RH WIND       PRES   REMARKS
LEWISTON       FAIR      71  47  42 W13       29.92R
LOWELL           N/A     61  51  70 CALM      29.94R
COEUR D`ALENE  FAIR      59  39  47 MISG      29.91R
MULLAN PASS    FAIR      51  36  56 VRB7      30.05R
$$




USA.gov is the U.S. government's official web portal to all federal, state and local government web resources and services.